Location: Wonder Lake State Park
(41.4960°N, 73.6562°W)
Time: 01:26:58
(UTC-04:00)

Daily predictions for brighter satellites

Satellite Brightness Start Highest point End
(mag) Time Altitude Azimuth Time Altitude Azimuth Time Altitude Azimuth
Terra 4.2 00:05:46 16° WNW 00:05:46 16° WNW 00:07:30 10° NW
COSMOS 2428 4.3 00:05:01 27° WNW 00:05:56 28° NW 00:10:49 10° N
NOSS 3-1 (A) 4.2 00:10:33 49° NNE 00:10:33 49° NNE 00:15:19 10° NNE
ATLAS 2AS CENTAUR R/B 4.2 00:13:05 28° ENE 00:13:05 28° ENE 00:17:30 10° NE
SL-16 R/B 3.6 00:33:20 32° NNE 00:33:20 32° NNE 00:36:20 10° NNE
Cosmos 2333 Rocket 3.8 00:46:51 29° NW 00:46:51 29° NW 00:51:34 10° N
CZ-4C R/B 3.4 00:39:35 10° NW 00:44:55 49° WNW 00:44:55 49° WNW
ATLAS 3B R/B 3.6 00:44:15 10° NNW 00:50:40 40° NE 00:51:14 39° ENE
Cosmos 2237 Rocket 3.7 00:56:36 31° NW 00:56:36 31° NW 01:00:54 10° N
Cosmos 2278 Rocket 4.3 00:54:16 10° NW 00:56:09 18° WNW 00:56:09 18° WNW
CZ-2C R/B 4.2 01:13:59 10° N 01:17:28 31° NW 01:17:28 31° NW
USA 215 3.7 01:16:38 10° NE 01:21:27 52° ENE 01:21:27 52° ENE
USA 267 4.0 01:49:14 10° ESE 01:55:27 48° NNE 02:01:41 10° NW
Cosmos 2341 Rocket 4.4 01:51:31 10° N 01:56:23 57° NNW 01:56:23 57° NNW
Cosmos 2369 Rocket 3.1 01:52:57 10° NNW 01:56:56 45° N 01:56:56 45° N
ATLAS CENTAUR R/B 4.1 02:00:34 16° N 02:00:34 16° N 02:01:52 10° N
ATLAS 2AS CENTAUR R/B 3.2 02:00:28 59° WNW 02:01:09 60° NW 02:09:12 10° NNE
SL-16 R/B 4.1 02:15:11 19° NW 02:15:22 19° NW 02:19:20 10° N
Resurs 1-4 Rocket 4.1 02:12:56 10° NE 02:16:35 19° E 02:16:58 19° E
CZ-2D R/B 4.0 02:15:57 10° NE 02:19:46 20° E 02:20:13 20° E
Cosmos 1943 Rocket 2.6 02:19:44 10° NNW 02:25:05 58° NE 02:25:05 58° NE
BREEZE M DEB (TANK) 4.3 02:05:38 10° WNW 02:28:10 82° SW 02:30:16 51° SE
Cosmos 1809 Rocket 4.4 02:27:16 10° N 02:33:11 77° NE 02:33:11 77° NE
Cosmos 44 Rocket 4.4 02:31:35 10° NNW 02:35:03 40° NNE 02:35:03 40° NNE
ATLAS 3B R/B 3.8 02:35:06 10° NW 02:38:26 28° WNW 02:38:26 28° WNW
SL-16 R/B 3.0 02:49:25 34° SE 02:51:55 56° ENE 02:57:55 10° N
Aureole 1 Rocket 3.9 02:52:29 56° E 02:52:29 56° E 02:56:46 10° NNE
CBERS-1 4.2 02:48:25 10° NNE 02:52:55 69° NNE 02:52:55 69° NNE
Cosmos 1680 Rocket 3.9 02:53:52 55° E 02:53:52 55° E 02:58:50 10° NNE
USA 238 DEB 4.3 02:46:58 10° NW 02:52:03 43° WNW 02:52:03 43° WNW
USA 238 4.2 02:47:04 10° NW 02:52:11 44° WNW 02:52:11 44° WNW
IRS-1C 4.2 02:50:14 10° NNE 02:55:27 72° E 02:55:27 72° E
Cosmos 2218 Rocket 4.3 02:56:40 10° NNW 03:02:00 49° WNW 03:02:00 49° WNW
IRS-1D 4.1 02:58:30 10° NNE 03:03:34 51° E 03:04:07 49° ESE
USA 215 4.3 02:59:56 10° NE 03:05:52 38° NNW 03:08:48 26° WNW
Cosmos 2366 rocket 4.3 03:03:16 10° NNW 03:09:00 51° W 03:09:00 51° W
Cosmos 1656 Rocket 3.9 03:06:34 10° NNW 03:11:57 62° ENE 03:14:45 28° SE
Cosmos 1943 4.2 03:12:41 33° WNW 03:12:51 33° WNW 03:17:55 10° N
GEOS 3 Rocket 3.5 03:07:54 10° NE 03:13:14 90° SE 03:13:30 82° SSW
Cosmos 1626 Rocket 4.2 03:15:42 48° NNW 03:15:42 48° NNW 03:19:03 10° N
Lacrosse 5 rocket 3.7 03:14:44 18° ESE 03:14:53 18° ESE 03:18:00 10° E
UNK 3.8 03:16:45 76° ENE 03:16:45 76° ENE 03:21:14 10° N
SL-27 R/B 4.3 03:19:08 27° E 03:19:08 27° E 03:21:45 10° NE
ARIANE 5 R/B 2.7 03:13:40 10° NNE 03:18:54 67° ESE 03:19:42 58° SSE
COSMOS 2455 3.1 03:13:32 10° NNW 03:19:34 69° ENE 03:25:32 10° SE
SL-08 R/B 4.5 03:22:00 31° NW 03:22:00 31° NW 03:24:49 10° NNW
Meteor 2-14 Rocket 4.4 03:15:37 10° NNW 03:21:39 60° W 03:21:59 59° WSW
Meteor 2-16 Rocket 4.3 03:17:19 10° NNW 03:23:21 66° W 03:24:01 62° SW
Genesis I 4.2 03:19:41 10° NNW 03:23:31 46° NE 03:25:23 26° ESE
Cosmos 1825 Rocket 4.3 03:24:03 45° ESE 03:24:39 48° E 03:28:55 10° NNE
NOSS 3-2 (C) 3.9 03:17:41 10° NW 03:25:16 81° WSW 03:33:26 10° SSE
Cosmos 923 Rocket 4.1 03:26:00 59° WNW 03:26:11 59° WNW 03:31:29 10° NNE
RESURS DK-1 2.7 03:28:13 63° E 03:28:13 63° E 03:31:59 10° NNE
Okean O Rocket 4.5 03:27:59 10° ENE 03:29:16 11° E 03:30:32 10° ESE
Cosmos 44 4.4 03:29:09 10° NW 03:31:14 27° NW 03:31:14 27° NW
Cosmos 1805 3.6 03:30:43 10° N 03:34:37 61° E 03:34:50 60° E
Cosmos 1602 Rocket 4.4 03:35:29 38° NW 03:35:29 38° NW 03:38:58 10° N
USA 267 3.2 03:31:59 10° SSE 03:38:22 56° SW 03:44:48 10° NW
Cosmos 1271 Rocket 3.4 03:35:10 10° N 03:38:50 49° ENE 03:39:35 41° ESE
NPP 4.5 03:35:53 10° N 03:40:40 33° WNW 03:41:02 33° WNW
Cosmos 2369 Rocket 4.4 03:38:31 10° WNW 03:38:41 10° WNW 03:38:41 10° WNW
CENTAUR R/B 3.7 03:35:39 10° NNW 03:43:22 57° NE 03:51:36 10° SE
Cosmos 192 4.2 03:44:35 61° SSW 03:45:27 84° WNW 03:50:25 10° NNE
COBE Rocket 3.8 03:41:14 10° N 03:46:21 87° W 03:47:37 52° SSW
Cosmos 1842 3.4 03:47:25 59° NW 03:47:25 59° NW 03:50:53 10° N
Cosmos 1766 4.4 03:43:47 10° NNW 03:46:22 33° NW 03:46:22 33° NW
Cosmos 724 4.3 03:42:35 10° NW 03:48:34 60° WSW 03:52:26 22° S
ADEOS Rocket 3.0 03:43:34 10° N 03:49:30 72° WNW 03:52:02 39° SSW
Tiangong 1 2.6 03:50:41 32° ENE 03:50:41 32° ENE 03:52:24 10° E
NOSS 3-4 (A) 3.9 03:49:09 37° W 03:51:18 53° NW 03:57:40 10° NNE
NOSS 3-4 (C) 3.9 03:49:15 38° WSW 03:51:24 53° NW 03:57:47 10° NNE
NOSS 2-2 (D) 4.3 03:51:47 35° SSE 03:52:45 41° ESE 03:56:58 10° NE
Nadezhda 3 Rocket 4.3 03:53:26 39° WSW 03:55:04 48° WNW 04:01:10 10° N
Resurs 1-4 Rocket 2.3 03:51:38 10° N 03:56:45 54° WNW 03:58:03 43° WSW
Abrixas 4.0 03:59:32 29° N 03:59:32 29° N 04:01:49 10° NE
COSMOS 2406 3.2 03:57:45 42° SW 03:59:43 68° WNW 04:05:29 10° NNE
Cosmos 2098 Rocket 4.0 03:57:12 10° NNE 03:59:56 30° ENE 04:01:43 16° SE
CZ-2D R/B 2.4 03:54:59 10° N 04:00:08 51° WNW 04:01:33 40° WSW
Cosmos 1544 3.5 03:57:16 10° NNW 04:00:19 48° WNW 04:00:19 48° WNW
MOZ.5/SAFIR/RUBIN 5/SL-8 3.7 03:59:03 23° SSE 04:01:59 90° ENE 04:06:41 10° NNW
NOSS 3-2 (A) 4.4 04:00:24 10° NW 04:07:18 38° WSW 04:14:38 10° S
Cosmos 1943 Rocket 3.9 04:04:38 10° NW 04:06:33 16° WNW 04:06:33 16° WNW
Cosmos 1953 2.2 04:06:55 10° NNW 04:10:53 66° W 04:12:01 43° SSW
NOSS 2-2 (C) 3.7 04:09:36 38° S 04:11:01 65° ESE 04:15:32 10° NE
Cosmos 389 Rocket 3.5 04:08:47 10° N 04:12:19 47° ENE 04:15:49 10° SSE
Delta 2 Rocket 4.2 04:14:25 25° SSE 04:14:25 25° SSE 04:16:49 10° ESE
Cosmos 1758 Rocket 3.5 04:15:53 38° SW 04:17:24 63° W 04:21:44 10° N
Cosmos 1707 3.4 04:15:04 17° SSE 04:17:49 52° E 04:21:36 10° NNE
Cosmos 1624 Rocket 3.9 04:12:52 10° NNW 04:18:02 66° WSW 04:23:12 10° S
Cosmos 1470 2.8 04:16:04 10° N 04:19:58 78° E 04:23:46 11° S
USA 32 4.2 04:18:56 31° SW 04:21:12 52° W 04:26:19 10° N
Landsat 4 3.7 04:18:37 10° SSE 04:22:16 83° ENE 04:26:01 10° NNW
Cosmos 1727 Rocket 4.0 04:16:46 12° S 04:22:36 81° E 04:28:48 10° N
Cosmos 1758 3.9 04:21:54 10° NNW 04:25:44 38° W 04:26:35 34° WSW
Cosmos-2242 3.0 04:21:32 10° N 04:25:58 86° E 04:30:20 10° S
USA 161 2.0 04:27:46 42° W 04:27:46 42° W 04:30:23 10° NNW
UNKNOWN OBJECT B 3.5 04:26:39 10° N 04:30:20 37° WNW 04:31:32 30° WSW
Cosmos 2056 Rocket 3.6 04:25:50 10° NNW 04:31:03 54° WSW 04:36:08 10° S
DNEPR-1 R/B 4.3 04:30:43 10° NNW 04:34:52 54° NE 04:39:13 10° SE
SL-16 R/B 3.6 04:34:30 22° WSW 04:35:51 23° W 04:40:39 10° NW
Cosmos 921 Rocket 3.2 04:32:23 10° NNW 04:36:44 51° WSW 04:41:06 10° S
Cosmos 374 Rocket 4.3 04:34:41 10° NW 04:38:21 52° WSW 04:42:21 10° SSE
Cosmos 1953 Rocket 4.3 04:36:52 26° WSW 04:38:36 35° WNW 04:42:43 10° N
MOS 1 Rocket 3.4 04:42:02 10° N 04:46:11 47° WNW 04:49:11 18° SW
PSLV R/B 3.8 04:42:39 10° N 04:46:46 84° W 04:50:47 11° SSW
Meteor 2-15 4.4 04:40:51 10° SSW 04:47:00 79° W 04:53:11 10° N
CZ-4B R/B 3.2 04:43:34 10° NNE 04:47:51 78° ESE 04:52:17 10° S
MOS 1-B 4.4 04:43:07 10° N 04:48:51 62° WNW 04:54:14 12° SSW
EXPRESS MD2 4.2 04:44:04 10° NW 04:49:03 46° NNE 04:51:49 10° E
Cosmos 1378 3.1 04:48:45 10° S 04:52:29 86° W 04:56:16 10° N
Lacrosse 5 rocket 1.7 04:50:27 19° SW 04:53:44 71° NW 04:58:23 10° NE
SL-27 R/B 4.3 04:52:50 15° W 04:53:56 17° WNW 04:56:25 10° NNW
Meteor 2-15 Rocket 4.4 04:48:28 10° S 04:54:36 81° W 05:00:47 10° N
IRS-1C Rocket 4.3 04:50:32 10° NNE 04:55:49 76° ESE 05:01:05 10° S
ARIANE 5 R/B 4.3 04:54:11 10° NNW 04:57:27 17° WNW 05:00:03 12° W
Cosmos 1459 Rocket 4.1 04:56:11 10° N 05:02:22 84° E 05:08:36 10° S
CZ-4B DEB 4.3 04:56:54 10° NNE 05:02:27 84° ESE 05:07:55 10° SSW
COSMOS 2455 4.1 05:00:49 10° WNW 05:04:52 19° WSW 05:08:53 10° SSW
Okean O Rocket 1.6 05:01:39 10° N 05:06:06 68° WNW 05:10:27 10° SSW
Cosmos 1452 Rocket 3.5 05:01:06 10° NNW 05:06:19 64° WSW 05:11:29 10° S
ADEOS II 2.1 05:01:22 10° N 05:06:38 78° WNW 05:11:52 10° SSW
Cosmos 1733 4.3 05:05:25 10° NW 05:08:34 25° W 05:11:42 10° SW
Meteor 2-5 Rocket 3.8 05:03:41 10° SSW 05:09:17 61° WNW 05:15:02 10° N
Cosmos 1818 4.0 05:08:43 12° SW 05:13:31 48° NW 05:18:48 10° NNE
Cosmos 2278 3.7 05:08:45 10° NNW 05:14:27 69° WSW 05:20:07 10° SSE
Cosmos 1697 Rocket 3.4 05:09:41 10° NNW 05:15:15 59° ENE 05:20:47 10° SE
COSMOS 2487 2.8 05:11:55 10° SW 05:15:21 48° WNW 05:18:51 10° N
Orbus 7S? 2.4 05:15:58 10° NW 05:19:02 87° SW 05:21:36 10° SE
EO 1 Del DPAF 3.2 05:15:16 10° S 05:19:05 65° WSW 05:22:56 10° NNW
SL-24 R/B 4.3 05:15:01 10° NNE 05:19:57 84° WNW 05:24:17 10° SSW
Cosmos 2369 3.7 05:15:29 10° NNW 05:21:09 62° WSW 05:26:47 10° S
Cosmos 1420 Rocket 4.0 05:19:45 10° NNW 05:25:03 68° WSW 05:30:18 10° S
Tiangong 1 0.7 05:22:35 10° WNW 05:25:25 78° SSW 05:28:16 10° ESE
Cosmos 1048 Rocket 4.0 05:25:53 10° SSW 05:31:01 78° WNW 05:36:11 10° NNE
Meteor 2-1 Rocket 4.2 05:25:45 10° NNW 05:31:23 78° W 05:37:06 10° S
Cosmos 2100 Rocket 4.2 05:27:22 10° NNW 05:33:22 52° W 05:39:17 10° SSW
CENTAUR R/B 3.6 05:26:44 10° NW 05:33:59 39° WSW 05:41:35 10° S
